Regional Weather Roundup
Issued by NWS

Home | Current Version | Previous Version | Text Only | Print | Product List | Glossary On
Versions: 1 2 3 4 5 6 7 8 9 10 11 12 13 14 15 16 17 18 19 20 21 22 23 24 25 26 27 28 29 30 31 32 33 34 35 36 37 38 39 40 41 42 43 44 45 46 47 48 49 50
000
ASUS43 KDTX 282301
RWRMI
MICHIGAN HOURLY REGIONAL WEATHER ROUNDUP
NATIONAL WEATHER SERVICE DETROIT/PONTIAC MI
700 PM EDT THU APR 28 2016

NOTE: "FAIR" INDICATES FEW OR NO CLOUDS BELOW 12,000 FEET WITH NO
SIGNIFICANT WEATHER AND/OR OBSTRUCTION TO VISIBILITY.

MIZ047>049-052>055-059>063-066>070-074>076-081>083-290000-
SOUTHEAST LOWER MICHIGAN

CITY           SKY/WX    TMP DP  RH WIND       PRES   REMARKS
ADRIAN         CLOUDY    47  34  60 E13G21    29.97R
ALMA           CLOUDY    41  36  81 NE13G18   30.02S
ANN ARBOR      CLOUDY    48  33  56 NE9       29.96F
BAD AXE        CLOUDY    40  32  72 NE8       30.06S WCI  35
CARO           CLOUDY    45  32  60 NE7       30.02R
DETROIT CITY   CLOUDY    49  31  49 NE13      29.99S
DETROIT        CLOUDY    49  32  52 NE9       29.99R
FLINT          CLOUDY    50  28  42 E12       30.00S
GROSSE ILE     CLOUDY    48  34  57 NE8       29.97R
HILLSDALE      CLOUDY    46  36  66 E9        29.94S
HOWELL         CLOUDY    47  34  60 NE7       29.98S

CITY           SKY/WX    TMP DP  RH WIND       PRES   REMARKS
JACKSON        CLOUDY    45  35  68 E10       29.97R
LAMBERTVILLE   CLOUDY    48  36  64 E8G18     29.96S
LANSING        CLOUDY    44  36  73 NE9       29.99R
LAPEER         CLOUDY    46  26  46 NE7       30.01S
MASON          CLOUDY    45  36  70 NE10      29.97S
MONROE         CLOUDY    47  37  67 E12       29.96S
MT. CLEMENS    CLOUDY    49  31  50 NE13      29.98S
PONTIAC        PTSUNNY   47  29  49 NE13      29.98R
PORT HOPE        N/A     40  33  76 NE15      30.05R WCI  32
PORT HURON     CLOUDY    45  30  57 N9        30.01S
TRI CITIES     CLOUDY    43  35  73 NE20      30.04S
MIDLAND        DRIZZLE   40  35  84 NE9       30.04S WCI  34
TROY           CLOUDY    50  30  45 NE9       30.00S
SAGINAW HB     CLOUDY    43  36  75 NE16      30.02S
$$
MIZ043>046-050>051-056>058-064>065-071>073-077>080-290000-
SOUTHWEST LOWER MICHIGAN

CITY           SKY/WX    TMP DP  RH WIND       PRES   REMARKS
BATTLE CREEK   CLOUDY    46  37  71 E12       29.97R
BENTON HARBOR  CLOUDY    53  44  71 E6        29.94R
BIG RAPIDS     CLOUDY    42  32  66 E8        30.02R
COLDWATER      CLOUDY    48  39  70 E7        29.95R
FREMONT        CLOUDY    42  36  77 E12       30.00R
HOLLAND        CLOUDY    44  38  79 E10       29.98R
GRAND RAPIDS   CLOUDY    44  37  76 E13       29.98S
IONIA          CLOUDY    43  33  69 NE9       29.98S
KALAMAZOO      CLOUDY    48  38  68 E7        29.96R
LUDINGTON      CLOUDY    45  33  63 E12G20    30.01F
MARSHALL       CLOUDY    46  36  70 E7        29.95S
MOUNT PLEASANT CLOUDY    40  36  84 NE8       30.03S WCI  35
MUSKEGON       CLOUDY    43  36  76 NE9       29.99R
$$
MIZ016>042-290000-
NORTHERN LOWER MICHIGAN

CITY           SKY/WX    TMP DP  RH WIND       PRES   REMARKS
ALPENA         CLOUDY    44  19  36 E10       30.10R
BEAVER ISLAND  MOSUNNY   45  25  45 E8        30.08S
BELLAIRE       MOSUNNY   54  26  33 E6        30.03S
CADILLAC       CLOUDY    41  33  72 E9        30.01S
CHARLEVOIX     MOSUNNY   49  29  47 NE10G20   30.08R
GAYLORD        MOSUNNY   48  23  37 NE8       30.05R
GRAYLING       CLOUDY    48  25  39 E8        30.04F
HARBOR SPRINGS CLOUDY    48  25  41 E12       30.07S
HOUGHTON LAKE  LGT RAIN  42  33  70 E8        30.04F
MANISTEE       CLOUDY    45  28  53 NW8       30.03S
OSCODA         CLOUDY    40  28  63 NE9       30.08S WCI  34
PELLSTON       CLOUDY    48  20  32 NE14      30.09S
ROGERS CITY    PTSUNNY   44  22  42 E6        30.11S
TRAVERSE CITY  LGT RAIN  47  34  60 CALM      30.02F
$$
MIZ007>008-015-290000-
EASTERN UPPER MICHIGAN

CITY           SKY/WX    TMP DP  RH WIND       PRES   REMARKS
KINROSS          N/A     46  28  49 W6        30.09S
MACKINAC ISLAN MOSUNNY   44  25  47 E3        30.09S
NEWBERRY       SUNNY     50  26  39 SW3       30.08R
S. S. MARIE    MOSUNNY   52  28  39 N7        30.07S
MUNISING         N/A     40  31  70 NE14      30.10R WCI  32
$$
MIZ004>006-011>014-085-290000-
CENTRAL UPPER MICHIGAN

CITY           SKY/WX    TMP DP  RH WIND       PRES   REMARKS
MANISTIQUE     MOSUNNY   46  27  48 E10       30.07S
ESCANABA       PTSUNNY   48  27  43 E8        30.07R
MENOMINEE      CLOUDY    43  30  61 NE10G16   30.05F
SAWYER-GWINN   SUNNY     39  27  60 NE12      30.07R WCI  32
$$
MIZ001>003-009>011-084-290000-
WESTERN UPPER MICHIGAN

CITY           SKY/WX    TMP DP  RH WIND       PRES   REMARKS
IRON MOUNTAIN  CLOUDY    53  22  29 SE8       30.02S
HOUGHTON       SUNNY     43  26  51 E10       30.11S
COPPER HARBOR    N/A     40  33  76 NE3       30.14S
IRONWOOD       SUNNY     45  28  53 N10       30.05R
$$

ABBREVIATIONS USED IN REMARKS
   TC - TEMPERATURE IN CELSIUS
  WCI - WIND CHILL INDEX
   HX - HEAT INDEX
  VSB - VISIBILITY





USA.gov is the U.S. government's official web portal to all federal, state and local government web resources and services.